Tracking 28790 objects as of 19-Apr-2024
HD Live streaming from Space Station
objects crossing your sky now

USA 40 R/B DEB

Track USA 40 R/B DEB now!
10-day predictions


NORAD ID: 23356
Int'l Code: 1989-061AC
Perigee: 499.1 km
Apogee: 5,412.6 km
Inclination: 56.9 °
Period: 149.4 minutes
Semi major axis: 9326 km
RCS: Unknown
Launch date: August 8, 1989
Source: United States (US)
Launch site: AIR FORCE EASTERN TEST RANGE (AFETR)

Note: This is SATELLITE DEBRIS
Your satellite tracking list
Your tracking list is empty




NASA's NSSDC Master Catalog

Two Line Element Set (TLE):
1 23356U 89061AC  24109.82796600  .00023239  00000-0  12445-1 0  9993
2 23356  56.9099 316.8117 2634055  62.3801 321.9432  9.63832308177530
Source of the keplerian elements: AFSPC